Weather History for Casa Grande, AZ

Change the Weather History Date:

Wednesday, April 23, 2014

  Actual Average Record
Temperature  
Mean Temperature 70 °F -  
Max Temperature 84 °F 82 °F 98 °F (2012)
Min Temperature 57 °F 52 °F 44 °F (2003)
Cooling Degree Days 6    
Growing Degree Days 20 (Base 50)    
Moisture  
Dew Point 22 °F    
Average Humidity 17    
Maximum Humidity 36    
Minimum Humidity 7    
Precipitation  
Precipitation 0.00 in - - ()
Sea Level Pressure  
Sea Level Pressure 29.82 in    
Wind  
Wind Speed 6 mph (WSW)    
Max Wind Speed 18 mph    
Max Gust Speed 25 mph    
Visibility 10 miles    
Events      
Averages and records for this station are not official NWS values.
T = Trace of Precipitation, MM = Missing Value Source: NWS Daily Summary

Daily Weather History Graph

Daily Weather History Graph

Search for Another Location

Airport:

Trip Planner

Search our weather history database for the weather conditions in past years. The results will help you decide how hot, cold, wet, or windy it might be!

Date:

Astronomy

Apr. 23, 2014 Rise Set
Actual Time 5:47 AM MST 7:03 PM MST
Civil Twilight 5:22 AM MST 7:29 PM MST
Nautical Twilight 4:51 AM MST 7:59 PM MST
Astronomical Twilight 4:19 AM MST 8:31 PM MST
Moon 2:02 AM MST (4/23) 1:33 PM MST (4/23)
Length of Visible Light 14h 07m
Length of Day
13h 15m
Waning Crescent, 34% of the Moon is Illuminated
Apr 23
Waning Crescent
Apr 28
New
May 6
First Quarter
May 14
Full
May 21
Last Quarter

Hourly Weather History & Observations

Time (MST) Temp. Dew Point Humidity Pressure Visibility Wind Dir Wind Speed Gust Speed Precip Events Conditions
12:15 AM 71.6 °F 26.6 °F 19% 29.78 in 10.0 mi SSW 6.9 mph - N/A   Clear
12:35 AM 71.6 °F 28.4 °F 20% 29.78 in 10.0 mi South 8.1 mph - N/A   Clear
12:55 AM 71.6 °F 28.4 °F 20% 29.77 in 10.0 mi South 8.1 mph - N/A   Clear
1:15 AM 71.6 °F 30.2 °F 22% 29.77 in 10.0 mi South 8.1 mph - N/A   Clear
1:35 AM 69.8 °F 28.4 °F 21% 29.77 in 10.0 mi SSW 5.8 mph - N/A   Clear
1:55 AM 68.0 °F 26.6 °F 21% 29.77 in 10.0 mi SSW 5.8 mph - N/A   Clear
2:15 AM 68.0 °F 28.4 °F 23% 29.77 in 10.0 mi SSW 5.8 mph - N/A   Clear
2:35 AM 68.0 °F 32.0 °F 26% 29.77 in 10.0 mi SSW 5.8 mph - N/A   Clear
2:55 AM 66.2 °F 32.0 °F 28% 29.77 in 10.0 mi SW 3.5 mph - N/A   Clear
3:15 AM 66.2 °F 32.0 °F 28% 29.78 in 10.0 mi SW 5.8 mph - N/A   Clear
3:35 AM 64.4 °F 30.2 °F 28% 29.78 in 10.0 mi Calm Calm - N/A   Clear
3:55 AM 60.8 °F 30.2 °F 31% 29.78 in 10.0 mi Calm Calm - N/A   Clear
4:15 AM 64.4 °F 32.0 °F 30% 29.78 in 10.0 mi Calm Calm - N/A   Clear
4:35 AM 62.6 °F 32.0 °F 32% 29.78 in 10.0 mi Calm Calm - N/A   Clear
4:55 AM 57.2 °F 28.4 °F 33% 29.79 in 10.0 mi Calm Calm - N/A   Clear
5:15 AM 57.2 °F 30.2 °F 36% 29.79 in 10.0 mi Calm Calm - N/A   Clear
5:35 AM 57.2 °F 28.4 °F 33% 29.79 in 10.0 mi Calm Calm - N/A   Clear
5:55 AM 57.2 °F 26.6 °F 31% 29.80 in 10.0 mi Calm Calm - N/A   Clear
6:15 AM 59.0 °F 32.0 °F 36% 29.81 in 10.0 mi Calm Calm - N/A   Clear
6:35 AM 60.8 °F 32.0 °F 34% 29.81 in 10.0 mi Calm Calm - N/A   Clear
6:55 AM 64.4 °F 33.8 °F 32% 29.82 in 10.0 mi Calm Calm - N/A   Clear
7:15 AM 66.2 °F 30.2 °F 26% 29.82 in 10.0 mi Calm Calm - N/A   Clear
7:35 AM 66.2 °F 32.0 °F 28% 29.83 in 10.0 mi Calm Calm - N/A   Clear
7:55 AM 68.0 °F 30.2 °F 24% 29.83 in 10.0 mi Calm Calm - N/A   Clear
8:15 AM 69.8 °F 28.4 °F 21% 29.84 in 10.0 mi Calm Calm - N/A   Clear
8:35 AM 69.8 °F 17.6 °F 14% 29.83 in 10.0 mi WSW 3.5 mph - N/A   Clear
8:55 AM 71.6 °F 17.6 °F 13% 29.84 in 10.0 mi WSW 4.6 mph - N/A   Clear
9:15 AM 71.6 °F 19.4 °F 14% 29.84 in 10.0 mi West 9.2 mph - N/A   Clear
9:35 AM 73.4 °F 19.4 °F 13% 29.85 in 10.0 mi WSW 8.1 mph - N/A   Clear
10:15 AM 75.2 °F 23.0 °F 14% 29.85 in 10.0 mi West 10.4 mph - N/A   Clear
10:35 AM 77.0 °F 12.2 °F 9% 29.86 in 10.0 mi West 9.2 mph - N/A   Clear
10:55 AM 78.8 °F 12.2 °F 8% 29.85 in 10.0 mi WSW 10.4 mph 16.1 mph N/A   Clear
11:15 AM 78.8 °F 12.2 °F 8% 29.85 in 10.0 mi West 9.2 mph 19.6 mph N/A   Clear
11:35 AM 78.8 °F 14.0 °F 9% 29.85 in 10.0 mi Calm Calm - N/A   Clear
11:55 AM 78.8 °F 15.8 °F 9% 29.84 in 10.0 mi WSW 8.1 mph - N/A   Clear
12:15 PM 80.6 °F 15.8 °F 9% 29.84 in 10.0 mi WSW 10.4 mph - N/A   Clear
12:35 PM 80.6 °F 17.6 °F 10% 29.84 in 10.0 mi West 10.4 mph 18.4 mph N/A   Clear
1:15 PM 80.6 °F 23.0 °F 12% 29.84 in 10.0 mi Calm Calm - N/A   Clear
1:35 PM 82.4 °F 23.0 °F 11% 29.84 in 10.0 mi WNW 12.7 mph 24.2 mph N/A   Clear
1:55 PM 82.4 °F 24.8 °F 12% 29.84 in 10.0 mi West 13.8 mph 21.9 mph N/A   Clear
2:15 PM 84.2 °F 14.0 °F 7% 29.83 in 10.0 mi WNW 16.1 mph 25.3 mph N/A   Clear
2:35 PM 84.2 °F 15.8 °F 8% 29.83 in 10.0 mi WNW 16.1 mph 23.0 mph N/A   Clear
2:55 PM 82.4 °F 17.6 °F 9% 29.82 in 10.0 mi WSW 18.4 mph 24.2 mph N/A   Clear
3:15 PM 82.4 °F 19.4 °F 10% 29.82 in 10.0 mi WNW 12.7 mph 24.2 mph N/A   Clear
3:35 PM 82.4 °F 19.4 °F 10% 29.82 in 10.0 mi West 15.0 mph - N/A   Clear
3:55 PM 82.4 °F 19.4 °F 10% 29.81 in 10.0 mi West 16.1 mph 23.0 mph N/A   Clear
4:15 PM 82.4 °F 17.6 °F 9% 29.81 in 10.0 mi WSW 15.0 mph 21.9 mph N/A   Clear
4:35 PM 82.4 °F 17.6 °F 9% 29.81 in 10.0 mi West 13.8 mph 18.4 mph N/A   Clear
4:55 PM 82.4 °F 19.4 °F 10% 29.81 in 10.0 mi West 11.5 mph 16.1 mph N/A   Clear
5:15 PM 82.4 °F 19.4 °F 10% 29.81 in 10.0 mi West 13.8 mph 17.3 mph N/A   Clear
5:35 PM 82.4 °F 19.4 °F 10% 29.81 in 10.0 mi West 11.5 mph 16.1 mph N/A   Clear
5:55 PM 80.6 °F 19.4 °F 10% 29.81 in 10.0 mi West 13.8 mph 19.6 mph N/A   Clear
6:15 PM 80.6 °F 19.4 °F 10% 29.81 in 10.0 mi WNW 9.2 mph - N/A   Clear
6:35 PM 80.6 °F 19.4 °F 10% 29.82 in 10.0 mi WSW 5.8 mph - N/A   Clear
6:55 PM 78.8 °F 17.6 °F 10% 29.82 in 10.0 mi WSW 5.8 mph - N/A   Clear
7:15 PM 75.2 °F 17.6 °F 11% 29.82 in 10.0 mi SW 4.6 mph - N/A   Clear
7:35 PM 73.4 °F 15.8 °F 11% 29.82 in 10.0 mi WSW 4.6 mph - N/A   Clear
7:55 PM 71.6 °F 17.6 °F 13% 29.83 in 10.0 mi West 5.8 mph - N/A   Clear
8:15 PM 71.6 °F 19.4 °F 14% 29.84 in 10.0 mi WSW 5.8 mph - N/A   Clear
8:35 PM 69.8 °F 17.6 °F 14% 29.85 in 10.0 mi West 5.8 mph - N/A   Clear
8:55 PM 69.8 °F 17.6 °F 14% 29.86 in 10.0 mi West 5.8 mph - N/A   Clear
9:15 PM 69.8 °F 17.6 °F 14% 29.86 in 10.0 mi Calm Calm - N/A   Clear
9:35 PM 66.2 °F 15.8 °F 14% 29.87 in 10.0 mi Calm Calm - N/A   Clear
9:55 PM 68.0 °F 15.8 °F 13% 29.87 in 10.0 mi West 5.8 mph - N/A   Clear
10:15 PM 66.2 °F 15.8 °F 14% 29.88 in 10.0 mi West 6.9 mph - N/A   Clear
10:35 PM 66.2 °F 15.8 °F 14% 29.88 in 10.0 mi WNW 6.9 mph - N/A   Clear
10:55 PM 66.2 °F 15.8 °F 14% 29.88 in 10.0 mi WNW 6.9 mph - N/A   Clear
11:15 PM 68.0 °F 14.0 °F 12% 29.88 in 10.0 mi WNW 6.9 mph - N/A   Clear
11:35 PM 66.2 °F 14.0 °F 13% 29.89 in 10.0 mi West 5.8 mph - N/A   Clear
11:55 PM 64.4 °F 12.2 °F 13% 29.90 in 10.0 mi SSW 4.6 mph - N/A   Clear